User: anonymous   Login
Location: Unspecified
(0.0000°N, 0.0000°E)
Time: 14:16:33
(UTC+01:00)
Language:

Iridium 4 Rocket - Orbit

View from above orbital plane
View from above orbital plane
View from above satellite
View from above satellite

Ground track
Ground track

The orbit data is extracted from the following two-line orbital elements,

1 24797U 97020F   14327.16565586  .00000530  00000-0  10971-3 0  8253
2 24797 086.8944 336.3810 0227162 199.8361 204.6086 14.43302378922746
Epoch (UTC): 23 November 2014 03:58:32
Eccentricity: 0.0227162
inclination: 86.8944°
perigee height: 586 km
apogee height: 909 km
right ascension of ascending node: 336.3810°
argument of perigee: 199.8361°
revolutions per day: 14.43302378
mean anomaly at epoch: 204.6086°
orbit number at epoch: 92274

The dashed part of the orbit path shows where the satellite is in the earth's shadow,  

DLR